Date String (YYYY-MM-DD hh:mm:ss) UTC,Instrument flags,Ambient pressure (hPa),Sample flow (lpm),Bypass flow (lpm),Sample temperature (°C),Ambient temperature (°C),ASC tube jacket temperature (°C),LED temperature (°C),Box temperature (°C),Sample RH (%),Span deviation,Mass concentration (μg/m³),Mass concentration (μg/m³),Mass concentration (μg/m³)
DateTimeUTC,F1_M11,P_M11,Q1_M11,Q2_M11,T1_M11,T2_M11,T3_M11,T4_M11,T5_M11,U1_M11,ZSPAN_M11,X0_M11,X2_M11,X1_M11
2022-09-20 20:00:00,,0827.0,5.00,0.00,29.7,28.4,00.0,38.2,31.6,14.5,0000.0,0010.17,0003.62,0002.84
2022-09-20 20:01:00,,0827.0,5.01,0.00,29.7,28.2,00.0,38.3,31.7,14.8,0000.0,0009.86,0003.62,0002.85
2022-09-20 20:02:00,,0826.9,5.00,0.00,29.7,27.0,00.0,38.3,31.6,13.4,0000.0,0010.29,0003.65,0002.85
2022-09-20 20:03:00,,0826.9,5.00,0.00,29.6,26.6,00.0,38.2,31.5,13.0,0000.0,0010.50,0003.61,0002.84
2022-09-20 20:04:00,,0826.9,5.00,0.00,29.6,26.9,00.0,38.2,31.5,12.8,0000.0,0011.27,0003.60,0002.83
2022-09-20 20:05:00,,0827.0,4.99,0.00,29.6,27.2,00.0,38.2,31.3,12.7,0000.0,0011.61,0003.59,0002.84
2022-09-20 20:06:00,,0827.2,5.01,0.00,29.6,27.5,00.0,38.2,31.3,13.0,0000.0,0012.46,0003.59,0002.83
2022-09-20 20:07:00,,0827.0,4.99,0.00,29.6,27.8,00.0,38.2,31.4,12.7,0000.0,0012.65,0003.63,0002.83
2022-09-20 20:08:00,,0826.9,5.01,0.00,29.6,28.0,00.0,38.2,31.4,12.7,0000.0,0012.60,0003.63,0002.84
2022-09-20 20:09:00,,0826.9,4.99,0.00,29.7,28.3,00.0,38.2,31.5,12.5,0000.0,0013.74,0003.64,0002.84
2022-09-20 20:10:00,,0826.9,5.00,0.00,29.7,28.1,00.0,38.2,31.6,12.4,0000.0,0013.68,0003.59,0002.80
2022-09-20 20:11:00,,0826.9,5.01,0.00,29.7,27.0,00.0,38.2,31.5,12.2,0000.0,0013.42,0003.56,0002.77
2022-09-20 20:12:00,,0826.9,5.00,0.00,29.6,26.5,00.0,38.2,31.5,12.2,0000.0,0012.99,0003.51,0002.74
2022-09-20 20:13:00,,0826.8,4.99,0.00,29.6,26.8,00.0,38.2,31.4,12.4,0000.0,0013.81,0003.46,0002.72
2022-09-20 20:14:00,,0826.9,5.01,0.00,29.6,27.1,00.0,38.2,31.3,12.4,0000.0,0014.72,0003.46,0002.70
2022-09-20 20:15:00,,0827.2,5.01,0.00,29.5,27.4,00.0,38.2,31.3,12.5,0000.0,0014.68,0003.44,0002.69
2022-09-20 20:16:00,,0827.1,4.99,0.00,29.6,27.7,00.0,38.2,31.3,12.8,0000.0,0014.51,0003.42,0002.67
2022-09-20 20:17:00,,0826.9,5.01,0.00,29.6,27.9,00.0,38.2,31.4,12.7,0000.0,0014.17,0003.39,0002.67
2022-09-20 20:18:00,,0826.9,5.00,0.00,29.6,28.2,00.0,38.2,31.4,12.3,0000.0,0014.75,0003.37,0002.68
2022-09-20 20:19:00,,0826.8,5.00,0.00,29.6,28.4,00.0,38.2,31.5,12.3,0000.0,0014.93,0003.39,0002.68
2022-09-20 20:20:00,,0826.8,5.01,0.00,29.7,27.8,00.0,38.2,31.6,12.7,0000.0,0013.95,0003.39,0002.69
2022-09-20 20:21:00,,0826.8,5.00,0.00,29.6,26.7,00.0,38.2,31.4,12.6,0000.0,0014.40,0003.41,0002.70
2022-09-20 20:22:00,,0826.8,5.00,0.00,29.6,26.7,00.0,38.2,31.4,12.6,0000.0,0014.52,0003.44,0002.70
2022-09-20 20:23:00,,0826.8,5.00,0.00,29.6,27.0,00.0,38.1,31.4,12.2,0000.0,0014.98,0003.45,0002.70
2022-09-20 20:24:00,,0826.7,5.01,0.00,29.5,27.2,00.0,38.1,31.2,12.0,0000.0,0013.60,0003.43,0002.71
2022-09-20 20:25:00,,0826.8,5.00,0.00,29.5,27.5,00.0,38.1,31.3,12.1,0000.0,0012.19,0003.43,0002.71
2022-09-20 20:26:00,,0826.7,5.00,0.00,29.5,27.8,00.0,38.1,31.3,12.4,0000.0,0011.06,0003.43,0002.70
2022-09-20 20:27:00,,0826.7,5.00,0.00,29.6,28.1,00.0,38.2,31.4,12.8,0000.0,0011.06,0003.47,0002.72
2022-09-20 20:28:00,,0826.7,5.01,0.00,29.6,28.3,00.0,38.2,31.5,12.7,0000.0,0011.16,0003.56,0002.74
2022-09-20 20:29:00,,0826.8,5.00,0.00,29.7,28.5,00.0,38.2,31.6,12.8,0000.0,0010.49,0003.57,0002.71
2022-09-20 20:30:00,,0826.7,5.00,0.00,29.7,28.1,00.0,38.2,31.7,12.5,0000.0,0010.26,0003.54,0002.66
2022-09-20 20:31:00,,0826.8,5.00,0.00,29.7,26.9,00.0,38.2,31.6,11.8,0000.0,0010.27,0003.49,0002.63
2022-09-20 20:32:00,,0826.7,5.00,0.00,29.7,26.8,00.0,38.2,31.5,11.9,0000.0,0009.66,0003.47,0002.59
2022-09-20 20:33:00,,0826.7,5.01,0.00,29.6,27.1,00.0,38.2,31.5,12.2,0000.0,0009.36,0003.41,0002.56
2022-09-20 20:34:00,,0826.7,4.99,0.00,29.6,27.3,00.0,38.2,31.3,12.1,0000.0,0008.58,0003.35,0002.53
2022-09-20 20:35:00,,0826.7,5.00,0.00,29.6,27.6,00.0,38.2,31.4,12.3,0000.0,0008.50,0003.31,0002.49
2022-09-20 20:36:00,,0826.7,5.00,0.00,29.6,27.9,00.0,38.2,31.4,12.1,0000.0,0008.66,0003.28,0002.46
2022-09-20 20:37:00,,0826.6,5.00,0.00,29.6,28.1,00.0,38.2,31.5,11.9,0000.0,0008.88,0003.27,0002.46
2022-09-20 20:38:00,,0826.7,4.99,0.00,29.7,28.3,00.0,38.2,31.6,11.7,0000.0,0008.50,0003.21,0002.41
2022-09-20 20:39:00,,0826.7,5.01,0.00,29.7,28.4,00.0,38.3,31.6,11.5,0000.0,0008.68,0003.08,0002.36
2022-09-20 20:40:00,,0826.7,4.99,0.00,29.7,27.5,00.0,38.3,31.6,11.4,0000.0,0009.47,0002.98,0002.33
2022-09-20 20:41:00,,0826.7,4.99,0.00,29.7,26.6,00.0,38.2,31.5,11.3,0000.0,0009.44,0002.97,0002.32
2022-09-20 20:42:00,,0826.7,5.00,0.00,29.7,26.7,00.0,38.2,31.5,11.3,0000.0,0009.13,0002.98,0002.30
2022-09-20 20:43:00,,0826.7,5.00,0.00,29.6,27.0,00.0,38.2,31.3,11.6,0000.0,0009.08,0002.94,0002.30
2022-09-20 20:44:00,,0826.7,5.00,0.00,29.6,27.3,00.0,38.2,31.3,11.6,0000.0,0009.11,0002.89,0002.31
2022-09-20 20:45:00,,0826.7,5.01,0.00,29.6,27.6,00.0,38.2,31.3,11.6,0000.0,0009.27,0002.92,0002.31
2022-09-20 20:46:00,,0826.7,5.00,0.00,29.6,27.9,00.0,38.2,31.4,11.7,0000.0,0009.46,0002.94,0002.33
2022-09-20 20:47:00,,0826.7,5.00,0.00,29.6,28.1,00.0,38.2,31.5,11.6,0000.0,0009.36,0002.93,0002.31
2022-09-20 20:48:00,,0826.7,5.00,0.00,29.7,28.4,00.0,38.2,31.6,11.8,0000.0,0009.05,0002.94,0002.31
2022-09-20 20:49:00,,0826.7,4.98,0.00,29.7,28.5,00.0,38.3,31.7,11.6,0000.0,0008.94,0002.94,0002.30
2022-09-20 20:50:00,,0826.6,5.01,0.00,29.7,27.7,00.0,38.3,31.7,11.6,0000.0,0008.18,0002.98,0002.32
2022-09-20 20:51:00,,0826.6,5.01,0.00,29.7,26.6,00.0,38.2,31.5,11.7,0000.0,0008.01,0002.96,0002.33
2022-09-20 20:52:00,,0826.6,4.99,0.00,29.7,26.7,00.0,38.2,31.5,11.8,0000.0,0008.48,0002.95,0002.33
2022-09-20 20:53:00,,0826.6,4.98,0.00,29.6,26.9,00.0,38.2,31.4,11.9,0000.0,0008.53,0002.90,0002.34
2022-09-20 20:54:00,,0826.7,5.01,0.00,29.6,27.2,00.0,38.2,31.3,12.2,0000.0,0008.04,0002.83,0002.34
2022-09-20 20:55:00,,0826.7,4.99,0.00,29.6,27.5,00.0,38.2,31.3,12.0,0000.0,0007.60,0002.88,0002.32
2022-09-20 20:56:00,,0826.6,5.02,0.00,29.6,27.8,00.0,38.2,31.4,11.8,0000.0,0007.58,0002.86,0002.30
2022-09-20 20:57:00,,0826.6,4.99,0.00,29.6,28.1,00.0,38.2,31.5,12.2,0000.0,0007.48,0002.86,0002.27
2022-09-20 20:58:00,,0826.6,5.00,0.00,29.7,28.3,00.0,38.2,31.5,11.5,0000.0,0007.51,0002.87,0002.26
2022-09-20 20:59:00,,0826.5,5.01,0.00,29.7,28.4,00.0,38.3,31.6,11.5,0000.0,0007.59,0002.87,0002.24
